[[{"header":{"parameterUnit":"m.s-1","parameterCategory":1,"la1":30.2991,"la2":30.254,"lo1":-89.0895,"lo2":-89.0444,"dy":0.0017,"dx":0.0017,"nx":28,"ny":28,"refTime":"2025-07-10T21:00:00:Z","depth":0,"parameterNumber":2,"parameterNumberName":"U-component_of_WINDS"},"data":[0,0,0,0,0,0,0,0,0,0,0,0,0,0,0,0,0,0,0,0,0,0,0,0,0,0,0,0,0,0,0,0,0,0,0,0,0,0,0,0,0,0,0,0,0,0,0,0,0,0,0,0,0,0,0,0,0,0,1.8211,1.821,0,1.8143,1.8142,1.8141,1.7983,1.798,1.7977,1.7974,1.7908,1.7909,1.791,0,0,0,0,0,0,0,0,0,0,0,0,0,1.8206,1.8207,1.8211,1.821,1.8209,1.8143,1.8142,1.8141,1.7984,1.798,1.7976,1.7972,1.7907,1.7909,1.791,0,0,0,0,0,0,0,0,0,0,0,0,0,1.818,1.8207,1.8211,1.8122,1.8114,1.8143,1.8142,1.8141,1.7985,1.798,1.7975,1.797,1.7907,1.7909,1.7911,1.8022,0,0,1.7917,1.7918,0,0,0,0,0,0,0,0,1.8182,1.8181,1.8136,1.8129,1.8119,1.8066,1.8116,1.8101,1.7986,1.8034,1.7973,1.7968,1.7965,1.7962,1.796,1.8019,1.8016,1.7917,1.7918,1.7919,1.792,0,0,0,0,0,0,0,1.8184,1.8183,1.8184,1.8136,1.8125,1.8087,1.8078,1.8113,1.8028,1.8029,1.8018,1.8012,1.7959,1.7958,1.7957,1.8015,1.7917,1.7919,1.792,1.7921,1.816,1.8165,0,0,0,0,0,0,1.8198,1.8185,1.8186,1.8182,1.8139,1.8091,1.8081,1.8088,1.8027,1.8013,1.8016,1.8004,1.7957,1.7955,1.7954,1.808,1.7919,1.7921,1.7922,1.8155,1.8162,1.8167,0,0,0,0,0,0,1.8199,1.82,1.8189,1.818,1.8176,1.8096,1.8106,1.809,1.8089,1.8017,1.8001,1.8031,1.7953,1.7952,1.8006,1.8076,1.7922,1.7923,1.8149,1.8157,1.8164,1.8333,0,0,0,0,0,0,1.8199,1.8201,1.8242,1.8182,1.8177,1.8242,1.811,1.8092,1.8092,1.8077,1.8027,1.8014,1.7949,1.8004,1.8008,1.8075,1.7925,1.8143,1.8153,1.8162,1.8321,1.8346,1.8367,0,0,0,0,0,1.8199,1.8293,1.8245,1.8246,1.8227,1.8246,1.8243,1.8166,1.8098,1.8139,1.8093,1.8015,1.8067,1.8011,1.8014,1.8083,1.8138,1.815,1.8161,1.8311,1.8341,1.8366,0,0,0,0,0,0,1.8364,1.8284,1.8229,1.8306,1.8284,1.8219,1.8268,1.8201,1.8198,1.8184,1.8089,1.8079,1.8147,1.812,1.8058,1.8187,1.809,1.8103,1.8202,1.823,1.8253,1.8258,1.7927,0,0,0,0,0,1.8409,1.8431,1.8359,1.8434,1.8425,1.8349,1.8355,1.8297,1.8271,1.8261,1.8218,1.8197,1.8208,1.8217,1.8223,1.8316,1.8303,1.8365,1.8388,1.8407,1.842,1.8466,1.8493,1.8205,1.8205,1.8205,0,0,1.8503,1.8462,1.8481,1.8466,1.8442,1.8467,1.8343,1.8374,1.8392,1.8266,1.8314,1.8283,1.8252,1.8326,1.8356,1.8305,1.8496,1.8422,1.8438,1.844,1.8481,1.8508,1.8533,1.8213,1.8212,1.8211,0,0,1.8687,1.8658,1.8716,1.8694,1.8659,1.8607,1.8622,1.8566,1.854,1.8587,1.8492,1.8512,1.8534,1.8515,1.8509,1.8685,1.8613,1.8689,1.881,1.8856,1.8879,1.8898,1.8962,1.8985,1.8702,1.8702,1.8703,0,1.8809,1.8842,1.8756,1.8793,1.8789,1.8674,1.8734,1.8717,1.8686,1.8687,1.863,1.8653,1.8624,1.8692,1.8735,1.8733,1.8747,1.8695,1.8882,1.8901,1.8918,1.8977,1.9001,1.8712,1.8711,1.871,1.8709,0,1.8993,1.9017,1.9069,1.9041,1.9042,1.9091,1.9013,1.9025,1.8967,1.8922,1.8971,1.8932,1.8928,1.8939,1.8884,1.8999,1.8969,1.8899,1.88,1.8957,1.9011,1.9033,1.8725,1.8722,1.8719,1.8717,0,0,1.9281,1.9203,1.9223,1.9209,1.916,1.9178,1.9221,1.9215,1.9228,1.921,1.9244,1.9264,1.9198,1.9191,1.9132,1.9173,1.9315,1.9097,1.9095,1.914,1.944,1.9494,1.9522,1.9266,1.927,1.9274,1.9443,0,1.9454,1.9522,1.9445,1.953,1.9551,1.9442,1.9479,1.9454,1.9412,1.9425,1.9379,1.9395,1.9306,1.9301,1.9337,1.9291,1.9374,1.9277,1.9299,1.93,1.9311,1.955,1.9607,1.9769,1.9463,1.9467,1.9469,0,1.9665,1.9656,1.9743,1.9687,1.9694,1.9729,1.9717,1.973,1.9699,1.9666,1.9658,1.9586,1.9625,1.9527,1.958,1.9516,1.9519,1.9498,1.9502,1.9503,1.9396,1.9557,1.9818,1.9843,1.9502,1.9499,1.9497,0,1.9867,1.9876,1.9929,1.9919,1.9857,1.9884,1.9859,1.9823,1.9825,1.9815,1.9815,1.9811,1.9809,1.9807,1.9737,1.9672,1.9798,1.9694,1.9773,1.9775,1.9805,1.9805,2.0072,1.9807,1.9806,1.9806,1.9805,0,2.0069,2.0127,2.0018,2.0051,2.0112,2.0023,2.0086,2.005,2.0019,2.0043,1.9948,1.9974,1.9878,1.9893,1.9838,1.989,1.989,1.9865,1.9849,1.9874,1.9877,1.9876,1.9864,1.9812,1.9811,1.981,1.9809,0,2.0306,2.0235,2.0285,2.0221,2.0206,2.0254,2.0199,2.0227,2.0179,2.0211,2.0213,2.0138,2.015,2.0079,2.0079,2.0042,2.0122,2.0087,2.0132,2.0122,2.0204,2.0198,2.0481,2.0514,2.0227,2.023,2.0233,0,2.044,2.0481,2.042,2.0429,2.0409,2.0424,2.0425,2.0338,2.0343,2.031,2.0343,2.0347,2.0346,2.0371,2.0317,2.0317,2.0282,2.0381,2.0281,2.0304,2.0284,2.0283,2.0287,2.0403,2.0406,2.0409,2.0411,0,2.0685,2.0648,2.0651,2.0643,2.0646,2.0636,2.0619,2.0632,2.0538,2.0549,2.056,2.0559,2.0558,2.0564,2.0552,2.0527,2.0455,2.0443,2.0461,2.0487,2.0512,2.05,2.019,2.0437,2.0435,2.0433,2.0431,2.043,2.0874,2.0906,2.0868,2.0875,2.0853,2.084,2.0862,2.0816,2.0823,2.0815,2.0763,2.0784,2.0751,2.0728,2.071,2.0725,2.0678,2.0705,2.0711,2.072,2.0735,2.0508,2.0723,2.0722,2.0721,2.0721,2.072,0,2.1115,2.1085,2.1092,2.1071,2.1077,2.1006,2.0984,2.0994,2.1013,2.0988,2.0988,2.1001,2.1006,2.0951,2.0949,2.0972,2.0939,2.0975,2.0973,2.0968,2.0776,2.0761,2.1002,2.1002,2.1002,2.1002,2.1002,2.1002,2.1241,2.1291,2.1249,2.1287,2.1256,2.1274,2.1268,2.1255,2.1234,2.1252,2.1255,2.1219,2.1182,2.1177,2.1178,2.1162,2.1166,2.1214,2.1187,2.1009,2.0982,2.0956,2.0941,2.1215,2.1216,2.1377,2.1379,2.138]},{"header":{"parameterUnit":"m.s-1","parameterCategory":1,"la1":30.2991,"la2":30.254,"lo1":-89.0895,"lo2":-89.0444,"dy":0.0017,"dx":0.0017,"nx":28,"ny":28,"refTime":"2025-07-10T21:00:00:Z","depth":0,"parameterNumber":3,"parameterNumberName":"V-component_of_WINDS"},"data":[0,0,0,0,0,0,0,0,0,0,0,0,0,0,0,0,0,0,0,0,0,0,0,0,0,0,0,0,0,0,0,0,0,0,0,0,0,0,0,0,0,0,0,0,0,0,0,0,0,0,0,0,0,0,0,0,0,0,0.0347,0.0347,0,0.0303,0.0302,0.0302,0.0254,0.0254,0.0253,0.0252,0.0206,0.0205,0.0205,0,0,0,0,0,0,0,0,0,0,0,0,0,0.0389,0.0388,0.0347,0.0347,0.0346,0.0303,0.0302,0.0302,0.0254,0.0254,0.0253,0.0252,0.0206,0.0205,0.0205,0,0,0,0,0,0,0,0,0,0,0,0,0,0.036,0.0388,0.0347,0.0317,0.0314,0.0303,0.0302,0.0301,0.0255,0.0254,0.0253,0.0252,0.0206,0.0205,0.0205,0.0219,0,0,0.0202,0.0201,0,0,0,0,0,0,0,0,0.0362,0.0359,0.0322,0.0319,0.0316,0.0283,0.03,0.0274,0.0255,0.0277,0.0252,0.0251,0.0232,0.0229,0.0223,0.0217,0.0215,0.0202,0.0201,0.0201,0.02,0,0,0,0,0,0,0,0.0364,0.036,0.0329,0.0322,0.0318,0.0305,0.03,0.0295,0.0261,0.0275,0.0272,0.0267,0.023,0.0224,0.0222,0.0214,0.0202,0.0201,0.02,0.02,0.0216,0.0217,0,0,0,0,0,0,0.0371,0.0362,0.0331,0.0328,0.0337,0.0305,0.03,0.0295,0.0261,0.0255,0.0268,0.0265,0.0226,0.0223,0.022,0.0234,0.0201,0.02,0.0199,0.0215,0.0216,0.0218,0,0,0,0,0,0,0.0372,0.0368,0.0333,0.0344,0.0339,0.0306,0.03,0.0294,0.0288,0.0255,0.0249,0.0268,0.0225,0.0221,0.0219,0.0232,0.0199,0.0199,0.0214,0.0216,0.0217,0.0263,0,0,0,0,0,0,0.0373,0.0369,0.0375,0.0345,0.0338,0.0334,0.0301,0.0294,0.0287,0.0282,0.0254,0.0248,0.0224,0.0221,0.0219,0.023,0.0198,0.0213,0.0215,0.0217,0.0261,0.0266,0.0271,0,0,0,0,0,0.0375,0.039,0.0375,0.0372,0.0345,0.0335,0.0331,0.0304,0.0288,0.0293,0.0272,0.0249,0.0231,0.0221,0.0218,0.023,0.0212,0.0214,0.0216,0.0258,0.0265,0.0271,0,0,0,0,0,0,0.0422,0.0385,0.0369,0.0375,0.0358,0.0327,0.0333,0.0312,0.0299,0.0296,0.0262,0.0256,0.0258,0.0243,0.0233,0.0241,0.0218,0.022,0.0251,0.0257,0.0262,0.0266,0.0197,0,0,0,0,0,0.0433,0.0429,0.0396,0.0404,0.0397,0.0366,0.0361,0.0341,0.0322,0.0315,0.0294,0.0276,0.0266,0.0261,0.025,0.0258,0.025,0.0264,0.0269,0.0273,0.0276,0.0278,0.0283,0.0225,0.0225,0.0225,0,0,0.0456,0.0435,0.0435,0.0413,0.0398,0.0393,0.0361,0.0357,0.0353,0.0314,0.0312,0.0295,0.0273,0.0276,0.0276,0.0264,0.029,0.0276,0.028,0.028,0.0281,0.0286,0.0291,0.0226,0.0226,0.0226,0,0,0.0496,0.048,0.0484,0.047,0.0447,0.0426,0.0427,0.0399,0.0386,0.0383,0.0353,0.0347,0.0332,0.0317,0.0307,0.0339,0.0318,0.0337,0.0364,0.0367,0.0372,0.0375,0.0387,0.0391,0.0339,0.0339,0.0339,0,0.0527,0.0519,0.0489,0.0487,0.0479,0.0443,0.0447,0.0434,0.0409,0.0403,0.039,0.0368,0.0351,0.0349,0.0357,0.0351,0.035,0.034,0.0373,0.0377,0.038,0.0391,0.0395,0.0341,0.0341,0.0341,0.034,0,0.0559,0.0554,0.056,0.0537,0.0529,0.053,0.0499,0.0494,0.0474,0.0455,0.0451,0.0429,0.0412,0.041,0.0391,0.0406,0.0399,0.038,0.0356,0.0389,0.0398,0.0402,0.0345,0.0344,0.0343,0.0343,0,0,0.0629,0.0588,0.0591,0.0579,0.0551,0.0546,0.0545,0.0529,0.0525,0.0509,0.0507,0.0493,0.0475,0.0464,0.0442,0.0445,0.0471,0.0425,0.0424,0.0434,0.0485,0.05,0.0506,0.0456,0.0456,0.0457,0.0487,0,0.0663,0.066,0.0632,0.0637,0.0631,0.0596,0.0595,0.0577,0.0558,0.055,0.0529,0.052,0.0496,0.049,0.049,0.0468,0.0481,0.0465,0.0453,0.0453,0.0461,0.051,0.0527,0.0556,0.049,0.0491,0.0491,0,0.0704,0.069,0.0694,0.0665,0.0661,0.0661,0.0644,0.0636,0.0615,0.0601,0.0588,0.0564,0.0559,0.0536,0.0529,0.0519,0.0512,0.0501,0.0501,0.05,0.0475,0.0511,0.0565,0.057,0.0497,0.0496,0.0496,0,0.0755,0.0737,0.0736,0.0728,0.0694,0.0694,0.068,0.0657,0.0649,0.0633,0.0627,0.0611,0.0603,0.059,0.0562,0.0548,0.0558,0.0533,0.0546,0.0547,0.0551,0.0551,0.0606,0.0545,0.0545,0.0545,0.0545,0,0.0797,0.0801,0.0759,0.0759,0.0762,0.0729,0.0732,0.0714,0.0694,0.0689,0.0657,0.0653,0.0616,0.0607,0.0584,0.0582,0.0578,0.0566,0.056,0.0569,0.0571,0.0565,0.0563,0.0546,0.0546,0.0546,0.0546,0,0.0855,0.0827,0.0824,0.0792,0.0783,0.0787,0.0759,0.0757,0.0735,0.073,0.0726,0.0693,0.0681,0.0651,0.0631,0.0615,0.0619,0.0608,0.0627,0.0623,0.0638,0.0637,0.0691,0.0697,0.0633,0.0634,0.0634,0,0.0884,0.0886,0.0854,0.0849,0.0836,0.0827,0.0819,0.0786,0.0778,0.0753,0.0754,0.0739,0.0726,0.0708,0.0682,0.0666,0.0654,0.0674,0.0652,0.066,0.0655,0.0655,0.0655,0.0679,0.068,0.0681,0.0681,0,0.0939,0.0925,0.0914,0.0898,0.0889,0.0875,0.0859,0.0856,0.0818,0.0811,0.0799,0.0788,0.0768,0.0753,0.0733,0.0717,0.0693,0.0688,0.0691,0.0701,0.0712,0.0706,0.0641,0.0688,0.0687,0.0687,0.0686,0.0686,0.0984,0.0984,0.0961,0.095,0.0934,0.0919,0.0916,0.0894,0.0883,0.0864,0.0844,0.0834,0.081,0.0781,0.0766,0.0757,0.0744,0.0748,0.0749,0.075,0.0754,0.0713,0.0753,0.0753,0.0752,0.0752,0.0752,0,0.1037,0.1021,0.1011,0.0989,0.098,0.0957,0.0938,0.0932,0.0923,0.0903,0.0891,0.0876,0.0861,0.0833,0.0816,0.0814,0.0802,0.081,0.081,0.0807,0.0766,0.0766,0.082,0.082,0.082,0.082,0.082,0.082,0.1064,0.1063,0.1046,0.1036,0.1019,0.1009,0.0999,0.0985,0.0969,0.0954,0.0942,0.0924,0.09,0.0881,0.0866,0.0858,0.0853,0.0865,0.0854,0.0816,0.081,0.0804,0.0804,0.0864,0.0864,0.0895,0.0895,0.0895]}]]